This demonstration page uses our WeatherBlox Daily Observations layout. Learn more.

Left ArrowRight Arrow

44.31136, -96.79839

Hourly Observations for August 26, 2022

Temp ( °F °C ) Dew Point ( °F °C ) Humidity (%) Winds ( mph kmh ) Pressure ( in mb ) Visibility ( mi km ) Precip ( " mm )
12:56 am 00:56 Clear 53 11.7 53 11.7 100 100 Calm 30.19 1022 10 16 0.00 0.00
1:56 am 01:56 Clear 54 12.2 N/A N/A Calm 30.17 1022 10 16 0.00 0.00
2:34 am 02:34 Mostly Clear with Mist and Fog 52 11 N/A N/A Calm 30.14 1021 3 4 0.00 0.00
2:43 am 02:43 Mostly Clear with Mist and Fog 50 10 N/A N/A Calm 30.15 1021 1 1 0.00 0.00
2:56 am 02:56 Mostly Cloudy with Fog 49 9.4 N/A N/A Calm 30.17 1022 1 1 0.00 0.00
3:12 am 03:12 Hazy 52 11 N/A N/A ENE 3 6 30.13 1020 5 8 0.00 0.00
3:56 am 03:56 Clear 55 12.8 N/A N/A SE 3 6 30.14 1021 10 16 0.00 0.00
4:23 am 04:23 Mostly Clear 50 10 N/A N/A SW 3 6 30.13 1020 9 14 0.00 0.00
4:29 am 04:29 Partly Cloudy with Mist and Fog 50 10 N/A N/A WSW 3 6 30.14 1021 2 2 0.00 0.00
4:32 am 04:32 Mostly Cloudy with Mist and Fog 50 10 N/A N/A Calm 30.14 1021 1 1 0.00 0.00
4:44 am 04:44 Mostly Cloudy with Fog 48 9 N/A N/A Calm 30.15 1021 0 0 0.00 0.00
4:56 am 04:56 Cloudy with Fog 48 8.9 N/A N/A Calm 30.16 1021 0 0 0.00 0.00
5:09 am 05:09 Cloudy with Mist and Fog 48 9 N/A N/A Calm 30.14 1021 1 2 0.00 0.00
5:14 am 05:14 Cloudy with Haze 48 9 N/A N/A Calm 30.14 1021 4 6 0.00 0.00
5:47 am 05:47 Partly Cloudy 48 9 N/A N/A Calm 30.15 1021 10 16 0.00 0.00
5:56 am 05:56 Mostly Clear 49 9.4 N/A N/A Calm 30.16 1021 10 16 0.00 0.00
6:11 am 06:11 Mostly Cloudy with Mist and Fog 48 9 N/A N/A Calm 30.15 1021 3 5 0.00 0.00
6:51 am 06:51 Partly Cloudy 52 11 N/A N/A Calm 30.13 1020 9 14 0.00 0.00
6:56 am 06:56 Mostly Sunny 53 11.7 N/A N/A Calm 30.16 1021 9 14 0.00 0.00
7:56 am 07:56 Sunny 56 13.3 56 13.3 100 100 NE 3 6 30.16 1021 10 16 0.00 0.00
8:56 am 08:56 Partly Cloudy 61 16.1 56 13.3 83 83 ESE 9 15 30.13 1020 10 16 0.00 0.00
9:56 am 09:56 Mostly Sunny 62 16.7 62 16.7 100 100 ESE 6 9 30.11 1020 10 16 0.01 0.13
10:56 am 10:56 Sunny 73 22.8 62 16.7 68 68 SE 13 20 30.10 1019 10 16 0.00 0.00
11:56 am 11:56 Mostly Sunny 75 23.9 61 16.1 62 62 SSE 14 22 30.09 1019 10 16 0.00 0.00
12:25 pm 12:25 Mostly Cloudy 75 24 61 16 61 61 SE 16 26 29.98 1015 10 16 0.00 0.00
12:56 pm 12:56 Mostly Cloudy 73 22.8 62 16.7 68 68 SSE 16 26 30.08 1019 10 16 0.00 0.00
1:56 pm 13:56 Mostly Cloudy 79 26.1 62 16.7 56 56 SSE 16 26 30.04 1017 10 16 0.00 0.00
2:41 pm 14:41 Partly Cloudy 77 25 63 17 61 61 ESE 20 31 29.91 1013 10 16 0.00 0.00
2:56 pm 14:56 Mostly Sunny 78 25.6 63 17.2 60 60 SE 20 31 30.00 1016 10 16 0.00 0.00
3:56 pm 15:56 Mostly Cloudy 78 25.6 62 16.7 58 58 SSE 18 30 29.96 1015 10 16 0.00 0.00
4:56 pm 16:56 Mostly Cloudy 76 24.4 64 17.8 67 67 SSE 15 24 29.98 1015 10 16 0.00 0.00
5:56 pm 17:56 Mostly Cloudy 77 25 65 18.3 66 66 SE 14 22 29.96 1014 10 16 0.00 0.00
6:56 pm 18:56 Mostly Sunny 77 25 66 18.9 69 69 SE 13 20 29.94 1014 10 16 0.00 0.00
7:56 pm 19:56 Sunny 74 23.3 66 18.9 76 76 SSE 16 26 29.92 1013 10 16 0.00 0.00
8:56 pm 20:56 Clear 71 21.7 66 18.9 84 84 SE 15 24 29.92 1013 10 16 0.00 0.00
9:56 pm 21:56 Clear 70 21.1 66 18.9 87 87 SSE 14 22 29.92 1013 10 16 0.00 0.00
10:56 pm 22:56 Clear 69 20.6 66 18.9 90 90 SE 13 20 29.90 1013 10 16 0.00 0.00
11:56 pm 23:56 Clear 68 20 67 19.4 96 96 SE 12 19 29.88 1012 10 16 0.00 0.00

Powered by AerisWeather